カタログに戻る

SL-8 R/B

運用中PO
NORAD 23774·ROCKET BODY·🇷🇺 Russia

打ち上げ Jan 16, 1996 から Plesetsk Cosmodrome

Loading…

次のパス (今後24時間)

TLE

最新Source: Space-Track

元期: Sep 14, 2026, 07:55 UTC

1 23774U 96004B   26257.33044989  .00000097  00000-0  83397-4 0  9994
2 23774  82.9810  26.2832 0042398 256.6632 102.9796 13.76866103540051

AllMySatでSL-8 R/Bをリアルタイム追跡

Download on the App Store